CW9854 Weather Reports


Display with metric or nautical units.
time (UTC)temp
F
wind
direction
speed
MPH
gust
MPH
rain 1hr
in
rain 24hr
in
rain mn
in
humidity
%
barometer
mb
20260904005003 72 14 0.0 2.0 0.03 0.47 0.22 94 1013.2
20260904004716 72 19 0.0 3.0 0.04 0.47 0.21 94 1013.2
20260904004003 72 357 0.0 3.0 0.12 0.47 0.21 94 1013.0
20260904003503 73 246 0.0 1.0 0.15 0.46 0.20 94 1012.9
20260904003003 73 246 0.0 1.0 0.15 0.47 0.20 94 1012.5
20260904002503 73 246 0.0 1.0 0.15 0.47 0.20 94 1012.1
20260904002217 73 246 0.0 1.0 0.15 0.47 0.20 94 1012.2
20260904001716 73 233 0.0 2.0 0.15 0.48 0.20 94 1012.2
20260904001217 73 227 1.0 2.0 0.15 0.49 0.20 94 1012.5
20260904000506 73 224 1.0 2.0 0.15 0.50 0.20 94 1012.6
20260904000003 73 214 1.0 3.0 0.15 0.51 0.20 94 1012.7
20260903235503 73 208 1.0 3.0 0.14 0.51 0.19 94 1012.6
20260903235217 73 202 1.0 3.0 0.14 0.52 0.19 94 1012.7
20260903234503 74 197 1.0 3.0 0.11 0.50 0.16 94 1012.8
20260903234003 74 210 1.0 6.0 0.04 0.44 0.09 94 1012.9
20260903233503 73 183 1.0 6.0 0.00 0.41 0.05 93 1012.6
20260903233003 73 155 0.0 4.0 0.00 0.42 0.05 93 1012.7
20260903232718 73 157 0.0 4.0 0.00 0.43 0.05 93 1012.7
20260903232003 74 219 0.0 1.0 0.00 0.44 0.05 93 1012.7
20260903231718 74 219 0.0 1.0 0.00 0.45 0.05 93 1012.7
20260903231003 74 219 0.0 1.0 0.00 0.62 0.05 93 1012.4
20260903230503 74 0 0.0 0.0 0.00 0.68 0.05 93 1012.6
20260903230003 74 0 0.0 0.0 0.00 0.71 0.05 93 1012.5
20260903225503 74 0 0.0 0.0 0.00 0.72 0.05 93 1012.5
20260903225003 74 0 0.0 0.0 0.00 0.72 0.05 93 1012.5
20260903224503 74 0 0.0 0.0 0.00 0.72 0.05 93 1012.6
20260903224003 74 0 0.0 0.0 0.00 0.72 0.05 93 1012.6
20260903223503 74 0 0.0 0.0 0.00 0.72 0.05 93 1012.6
20260903223003 74 0 0.0 0.0 0.01 0.72 0.05 93 1012.7
20260903222718 74 0 0.0 0.0 0.01 0.72 0.05 93 1012.7
20260903222003 74 219 0.0 1.0 0.01 0.72 0.05 93 1012.6
20260903221503 74 219 0.0 1.0 0.01 0.72 0.05 93 1012.6
20260903221003 74 219 0.0 1.0 0.01 0.72 0.05 93 1012.3
20260903220503 74 0 0.0 0.0 0.01 0.72 0.05 93 1012.1
20260903220003 74 0 0.0 0.0 0.04 0.72 0.05 92 1012.0
20260903215717 75 0 0.0 0.0 0.04 0.72 0.05 92 1012.2
20260903215003 75 0 0.0 0.0 0.04 0.72 0.05 92 1012.2
20260903214503 75 0 0.0 0.0 0.04 0.72 0.05 92 1012.1
20260903214003 75 0 0.0 0.0 0.04 0.72 0.05 91 1012.2
20260903213503 75 0 0.0 0.0 0.04 0.72 0.05 91 1012.3
20260903213003 75 0 0.0 0.0 0.03 0.71 0.04 90 1012.3
20260903212503 76 0 0.0 0.0 0.03 0.71 0.04 90 1012.1
20260903212218 76 0 0.0 0.0 0.03 0.71 0.04 90 1012.1
20260903211503 76 219 0.0 1.0 0.03 0.71 0.04 89 1012.3
20260903211218 77 219 0.0 2.0 0.03 0.71 0.04 89 1012.3
20260903210717 77 209 0.0 2.0 0.03 0.71 0.04 88 1012.5
20260903210003 77 183 0.0 1.0 0.00 0.68 0.01 87 1012.4
20260903205503 78 175 0.0 1.0 0.00 0.68 0.01 88 1012.4
20260903205003 78 175 0.0 1.0 0.01 0.68 0.01 87 1012.6
20260903204717 78 175 0.0 1.0 0.01 0.68 0.01 87 1012.6
20260903204003 78 232 1.0 6.0 0.01 0.68 0.01 87 1012.5
20260903203503 78 222 1.0 6.0 0.01 0.68 0.01 85 1012.4
20260903203003 78 207 1.0 7.0 0.01 0.68 0.01 86 1012.6
20260903202503 78 220 1.0 7.0 0.01 0.68 0.01 87 1012.6
20260903202003 78 241 0.0 5.0 0.01 0.68 0.01 86 1012.7
20260903201503 78 213 0.0 4.0 0.01 0.68 0.01 87 1012.7
20260903201218 78 219 0.0 4.0 0.01 0.68 0.01 87 1012.7
20260903200503 79 218 0.0 3.0 0.01 0.68 0.01 86 1012.8
20260903200003 79 205 1.0 4.0 0.01 0.68 0.01 83 1013.0
20260903195717 80 196 1.0 4.0 0.01 0.68 0.01 84 1013.0
20260903195003 80 192 1.0 2.0 0.00 0.67 0.00 82 1012.9
20260903194503 81 208 1.0 4.0 0.00 0.67 0.00 83 1012.8
20260903194218 81 208 1.0 4.0 0.00 0.67 0.00 81 1012.7
20260903193503 81 224 1.0 2.0 0.00 0.67 0.00 82 1012.7
20260903193003 82 215 1.0 4.0 0.00 0.67 0.00 79 1012.7
20260903192717 82 205 1.0 4.0 0.00 0.67 0.00 81 1012.7
20260903192003 82 209 1.0 4.0 0.00 0.67 0.00 79 1012.7
20260903191503 82 197 1.0 6.0 0.00 0.67 0.00 82 1012.8
20260903191003 82 188 1.0 6.0 0.00 0.67 0.00 80 1012.9
20260903190503 82 200 1.0 6.0 0.00 0.67 0.00 80 1012.9
20260903190003 82 216 1.0 6.0 0.00 0.67 0.00 78 1013.0
20260903185503 82 222 2.0 6.0 0.00 0.67 0.00 81 1013.0
20260903185003 82 224 2.0 6.0 0.00 0.67 0.00 77 1012.9
20260903184503 82 226 1.0 5.0 0.00 0.67 0.00 77 1012.9
20260903184003 82 255 1.0 3.0 0.00 0.67 0.00 80 1013.1
20260903183503 82 287 1.0 3.0 0.00 0.67 0.00 82 1013.1
20260903183217 82 266 1.0 3.0 0.00 0.67 0.00 81 1013.1
20260903182503 82 230 1.0 7.0 0.00 0.67 0.00 80 1013.1
20260903182003 81 231 1.0 7.0 0.00 0.67 0.00 80 1013.2
20260903181503 81 180 1.0 3.0 0.00 0.67 0.00 83 1013.2
20260903181004 80 172 1.0 6.0 0.00 0.67 0.00 82 1013.2
20260903180503 80 210 2.0 9.0 0.00 0.67 0.00 82 1013.4
20260903180003 80 224 1.0 9.0 0.00 0.67 0.00 84 1013.5
20260903175503 80 215 1.0 5.0 0.00 0.67 0.00 86 1013.4
20260903175003 79 204 2.0 5.0 0.00 0.67 0.00 83 1013.4
20260903174503 79 202 2.0 6.0 0.00 0.67 0.00 85 1013.6
20260903174217 79 199 2.0 6.0 0.00 0.67 0.00 85 1013.6
20260903173503 79 215 1.0 4.0 0.00 0.67 0.00 84 1013.5
20260903173003 79 231 1.0 4.0 0.00 0.67 0.00 86 1013.5
20260903172503 79 212 1.0 4.0 0.00 0.67 0.00 85 1013.6
20260903172003 79 203 1.0 4.0 0.00 0.67 0.00 87 1013.6
20260903171503 78 228 1.0 4.0 0.00 0.67 0.00 86 1013.8
20260903171003 78 222 2.0 6.0 0.00 0.67 0.00 86 1013.7
20260903170503 78 214 2.0 6.0 0.00 0.67 0.00 87 1013.6
20260903170003 78 222 1.0 4.0 0.00 0.67 0.00 85 1013.7
20260903165503 78 219 1.0 4.0 0.00 0.67 0.00 85 1013.7
20260903165003 78 217 1.0 5.0 0.00 0.67 0.00 86 1013.5
20260903164503 78 199 2.0 5.0 0.00 0.67 0.00 85 1013.5
20260903164003 77 189 2.0 6.0 0.00 0.67 0.00 87 1013.6
20260903163503 77 220 2.0 10.0 0.00 0.67 0.00 86 1013.6
20260903163003 77 223 2.0 10.0 0.00 0.67 0.00 86 1013.8
20260903162503 77 226 2.0 5.0 0.00 0.67 0.00 86 1013.7
20260903162003 77 221 1.0 4.0 0.00 0.67 0.00 86 1013.8
20260903161717 77 212 1.0 3.0 0.00 0.67 0.00 86 1013.7
20260903161217 77 202 1.0 7.0 0.00 0.67 0.00 88 1013.7
20260903160503 77 201 1.0 6.0 0.00 0.67 0.00 87 1013.7
20260903160003 77 187 1.0 6.0 0.00 0.67 0.00 86 1013.7
20260903155503 77 190 1.0 6.0 0.00 0.67 0.00 88 1013.8
20260903155003 76 197 1.0 6.0 0.00 0.67 0.00 88 1013.9
20260903154503 76 239 1.0 3.0 0.00 0.67 0.00 87 1014.0
20260903154003 76 245 1.0 3.0 0.00 0.67 0.00 89 1014.0
20260903153503 76 178 1.0 4.0 0.00 0.67 0.00 90 1014.1
20260903153003 75 151 1.0 6.0 0.00 0.67 0.00 91 1013.9
20260903152503 75 164 1.0 6.0 0.00 0.67 0.00 90 1014.0
20260903152218 75 181 1.0 5.0 0.00 0.67 0.00 91 1014.0
20260903151503 75 213 1.0 5.0 0.00 0.67 0.00 92 1014.0
20260903151003 74 223 0.0 2.0 0.00 0.67 0.00 92 1014.1
20260903150508 74 214 1.0 2.0 0.00 0.67 0.00 93 1014.1
20260903150218 74 208 1.0 3.0 0.00 0.67 0.00 93 1014.1
20260903145503 74 200 1.0 3.0 0.00 0.67 0.00 93 1014.1
20260903145003 74 190 1.0 3.0 0.00 0.67 0.00 94 1014.1
20260903144503 74 197 1.0 3.0 0.00 0.67 0.00 95 1014.1
20260903144218 73 210 1.0 3.0 0.00 0.67 0.00 95 1014.1
20260903143503 73 232 0.0 2.0 0.00 0.67 0.00 95 1014.2
20260903143218 73 235 0.0 2.0 0.00 0.67 0.00 95 1014.2
20260903142503 73 329 0.0 2.0 0.00 0.67 0.00 96 1014.2
20260903142218 73 303 0.0 2.0 0.00 0.67 0.00 96 1014.0
20260903141717 73 271 1.0 2.0 0.00 0.67 0.00 96 1014.2
20260903141003 73 213 0.0 3.0 0.00 0.67 0.00 96 1014.2
20260903140503 73 187 1.0 3.0 0.00 0.67 0.00 96 1014.1
20260903140218 72 187 1.0 3.0 0.00 0.67 0.00 96 1014.1
20260903135503 72 159 1.0 4.0 0.00 0.67 0.00 96 1014.1
20260903135003 72 169 1.0 4.0 0.00 0.67 0.00 96 1014.1
20260903134503 72 198 1.0 2.0 0.00 0.67 0.00 96 1014.2
20260903134003 72 212 0.0 2.0 0.00 0.67 0.00 97 1014.2
20260903133503 72 222 0.0 2.0 0.00 0.67 0.00 97 1014.1
20260903133003 72 241 0.0 2.0 0.00 0.67 0.00 97 1014.2
20260903132503 72 211 0.0 2.0 0.00 0.67 0.00 97 1014.2
20260903132217 72 212 0.0 2.0 0.00 0.67 0.00 97 1014.2
20260903131503 71 217 0.0 1.0 0.00 0.67 0.00 97 1014.4
20260903131003 71 11 0.0 1.0 0.00 0.67 0.00 97 1014.3
20260903130503 71 15 0.0 1.0 0.00 0.67 0.00 97 1014.3
20260903130217 71 13 0.0 1.0 0.00 0.67 0.00 97 1014.4
20260903125503 70 6 0.0 2.0 0.00 0.67 0.00 97 1014.7
20260903125217 70 357 0.0 2.0 0.00 0.67 0.00 97 1014.7
20260903124718 70 357 0.0 2.0 0.00 0.67 0.00 97 1014.8
20260903124003 70 0 0.0 0.0 0.00 0.67 0.00 97 1014.7
20260903123504 70 246 0.0 1.0 0.00 0.67 0.00 97 1014.7
20260903123003 70 246 0.0 1.0 0.00 0.72 0.00 97 1014.6
20260903122503 69 246 0.0 1.0 0.00 0.93 0.00 97 1014.6
20260903122003 69 309 0.0 2.0 0.00 1.06 0.00 97 1014.7
20260903121503 69 327 0.0 2.0 0.00 1.12 0.00 97 1014.7
20260903121003 69 198 0.0 2.0 0.00 1.14 0.00 97 1014.6
20260903120503 68 200 0.0 1.0 0.00 1.15 0.00 97 1014.7
20260903120003 68 200 0.0 1.0 0.00 1.15 0.00 96 1014.6
20260903115503 68 200 0.0 1.0 0.00 1.15 0.00 96 1014.6
20260903115003 68 200 0.0 1.0 0.00 1.15 0.00 96 1014.5
20260903114503 68 200 0.0 1.0 0.00 1.15 0.00 96 1014.5
20260903114218 68 0 0.0 0.0 0.00 1.15 0.00 96 1014.4
20260903113503 68 0 0.0 0.0 0.00 1.16 0.00 96 1014.1
20260903113003 68 0 0.0 0.0 0.00 1.16 0.00 96 1014.1
20260903112503 68 0 0.0 0.0 0.00 1.16 0.00 96 1014.0
20260903112217 68 0 0.0 0.0 0.00 1.16 0.00 96 1014.0
20260903111503 68 200 0.0 1.0 0.00 1.16 0.00 96 1013.9
20260903111003 68 200 0.0 1.0 0.00 1.16 0.00 96 1013.9
20260903110503 68 0 0.0 0.0 0.00 1.16 0.00 96 1013.9
20260903110217 68 0 0.0 0.0 0.00 1.16 0.00 96 1013.9
20260903105503 68 0 0.0 0.0 0.00 1.16 0.00 96 1013.5
20260903105003 68 0 0.0 0.0 0.00 1.16 0.00 96 1013.4
20260903104503 68 0 0.0 0.0 0.00 1.16 0.00 96 1013.5
20260903104004 68 0 0.0 0.0 0.00 1.16 0.00 96 1013.4
20260903103503 68 0 0.0 0.0 0.00 1.16 0.00 96 1013.3
20260903103218 68 0 0.0 0.0 0.00 1.16 0.00 96 1013.4
20260903102717 68 0 0.0 0.0 0.00 1.16 0.00 96 1013.4
20260903102003 68 0 0.0 0.0 0.00 1.16 0.00 96 1013.4
20260903101503 68 200 0.0 1.0 0.00 1.16 0.00 96 1013.2
20260903101003 67 200 0.0 1.0 0.00 1.16 0.00 96 1013.2
20260903100503 67 200 0.0 1.0 0.00 1.16 0.00 96 1013.2
20260903100003 67 200 0.0 1.0 0.00 1.16 0.00 96 1013.2
20260903095503 67 0 0.0 0.0 0.00 1.16 0.00 96 1013.1
20260903095003 67 0 0.0 0.0 0.00 1.16 0.00 96 1013.1
20260903094717 67 0 0.0 0.0 0.00 1.16 0.00 95 1013.1
20260903094003 67 0 0.0 0.0 0.00 1.16 0.00 95 1013.0
20260903093503 67 0 0.0 0.0 0.00 1.16 0.00 95 1013.0
20260903093003 67 0 0.0 0.0 0.00 1.16 0.00 95 1012.9
20260903092503 67 0 0.0 0.0 0.00 1.16 0.00 95 1012.9
20260903092218 67 0 0.0 0.0 0.00 1.16 0.00 95 1012.8
20260903091503 68 0 0.0 0.0 0.00 1.16 0.00 95 1012.8
20260903091003 68 0 0.0 0.0 0.00 1.16 0.00 95 1012.9
20260903090503 68 0 0.0 0.0 0.00 1.16 0.00 95 1012.9
20260903090003 68 0 0.0 0.0 0.00 1.16 0.00 95 1012.8
20260903085503 68 0 0.0 0.0 0.00 1.16 0.00 95 1012.7
20260903085003 68 0 0.0 0.0 0.00 1.16 0.00 95 1012.7
20260903084503 68 0 0.0 0.0 0.00 1.16 0.00 95 1012.9
20260903084217 68 0 0.0 0.0 0.00 1.16 0.00 95 1012.9
20260903083503 68 0 0.0 0.0 0.00 1.16 0.00 95 1012.9
20260903083004 68 0 0.0 0.0 0.00 1.16 0.00 95 1012.8
20260903082503 68 0 0.0 0.0 0.00 1.16 0.00 95 1012.8
20260903082003 68 0 0.0 0.0 0.00 1.16 0.00 95 1012.7
20260903081503 68 0 0.0 0.0 0.00 1.16 0.00 95 1012.6
20260903081003 68 0 0.0 0.0 0.00 1.16 0.00 95 1012.6
20260903080503 68 0 0.0 0.0 0.00 1.16 0.00 95 1012.5
20260903080003 68 0 0.0 0.0 0.00 1.16 0.00 95 1012.6
20260903075503 68 0 0.0 0.0 0.00 1.16 0.00 95 1012.5
20260903075003 68 0 0.0 0.0 0.00 1.16 0.00 95 1012.6
20260903074503 68 0 0.0 0.0 0.00 1.16 0.00 95 1012.6
20260903074005 68 0 0.0 0.0 0.00 1.16 0.00 95 1012.6
20260903073503 68 0 0.0 0.0 0.00 1.16 0.00 95 1012.6
20260903073003 68 0 0.0 0.0 0.00 1.16 0.00 95 1012.6
20260903072718 68 200 0.0 1.0 0.00 1.16 0.00 95 1012.6
20260903072003 69 176 0.0 2.0 0.00 1.16 0.00 95 1012.7
20260903071718 68 187 0.0 2.0 0.00 1.16 0.00 95 1012.7
20260903071003 69 197 0.0 4.0 0.00 1.16 0.00 95 1012.6
20260903070503 69 192 0.0 4.0 0.00 1.16 0.00 95 1012.6
20260903070217 69 190 0.0 4.0 0.00 1.16 0.00 95 1012.6
20260903065503 69 160 0.0 5.0 0.00 1.16 0.00 95 1012.7
20260903065003 69 189 0.0 4.0 0.00 1.16 0.00 95 1012.9
20260903064718 69 201 0.0 4.0 0.00 1.16 0.00 95 1012.9
20260903064003 69 215 0.0 2.0 0.00 1.16 0.00 95 1013.1
20260903063503 69 215 0.0 2.0 0.00 1.16 0.00 95 1012.9
20260903063217 69 212 0.0 2.0 0.00 1.16 0.00 95 1013.0
20260903062503 69 201 0.0 3.0 0.00 1.16 0.00 95 1013.0
20260903062003 69 194 0.0 3.0 0.00 1.16 0.00 95 1013.2
20260903061503 69 205 0.0 2.0 0.00 1.16 0.00 95 1013.0
20260903061003 69 217 0.0 4.0 0.00 1.16 0.00 95 1013.0
20260903060504 69 211 0.0 4.0 0.00 1.16 0.00 95 1013.0
20260903060003 69 218 0.0 4.0 0.00 1.16 0.00 95 1012.7
20260903055503 69 203 1.0 4.0 0.00 1.16 0.00 95 1012.7
20260903055003 69 195 1.0 4.0 0.00 1.16 0.00 95 1012.7
20260903054717 69 192 1.0 4.0 0.00 1.16 0.00 95 1012.6
20260903054003 69 172 1.0 2.0 0.00 1.16 0.00 95 1012.7
20260903053717 69 172 0.0 1.0 0.00 1.16 0.00 95 1012.8
20260903053003 69 214 0.0 4.0 0.00 1.16 0.00 95 1012.8
20260903052503 69 222 0.0 3.0 0.00 1.16 0.00 95 1012.7
20260903052003 69 200 1.0 5.0 0.00 1.16 0.00 95 1012.7
20260903051503 69 203 1.0 5.0 0.00 1.16 0.00 95 1012.9
20260903051003 69 209 1.0 4.0 0.00 1.16 0.00 95 1012.9
20260903050504 69 198 1.0 3.0 0.00 1.16 0.00 95 1012.8
20260903050003 69 206 2.0 7.0 0.00 1.16 0.00 95 1012.9
20260903045717 69 206 2.0 7.0 0.00 1.16 0.00 95 1012.8
20260903045003 68 213 1.0 6.0 0.00 1.16 0.00 95 1012.6
20260903044503 68 212 1.0 4.0 0.00 1.16 0.00 95 1012.7
20260903044003 68 217 1.0 4.0 0.00 1.16 0.00 95 1012.6
20260903043503 68 232 0.0 2.0 0.00 1.16 0.00 95 1012.6
20260903043003 68 234 0.0 2.0 0.00 1.16 0.00 95 1012.2
20260903042503 69 235 0.0 2.0 0.00 1.16 0.00 95 1012.2
20260903042003 69 240 0.0 3.0 0.00 1.16 0.00 95 1012.4
20260903041717 69 242 0.0 3.0 0.00 1.16 0.00 95 1012.2
20260903041003 69 314 0.0 1.0 0.00 1.16 0.00 95 1012.1
20260903040503 69 260 0.0 1.0 0.00 1.16 0.00 95 1012.1
20260903040218 69 243 0.0 1.0 0.00 1.16 0.00 95 1012.1
20260903035503 69 237 0.0 2.0 0.00 1.16 1.16 95 1012.0
20260903035003 69 195 1.0 3.0 0.00 1.16 1.16 95 1012.0
20260903034717 69 192 1.0 3.0 0.00 1.16 1.16 95 1012.0
20260903034218 69 211 0.0 2.0 0.00 1.16 1.16 95 1012.2
20260903033717 69 233 0.0 1.0 0.00 1.16 1.16 95 1012.2
20260903033003 69 255 0.0 3.0 0.00 1.16 1.16 95 1012.3
20260903032503 69 282 0.0 3.0 0.00 1.16 1.16 95 1012.3
20260903032003 69 252 1.0 4.0 0.00 1.16 1.16 95 1012.3
20260903031503 69 226 1.0 4.0 0.00 1.16 1.16 95 1012.5
20260903031003 69 246 1.0 3.0 0.00 1.16 1.16 95 1012.7
20260903030503 69 261 1.0 2.0 0.00 1.16 1.16 95 1012.9
20260903030003 69 229 1.0 2.0 0.00 1.16 1.16 95 1013.0
20260903025503 69 224 0.0 2.0 0.00 1.16 1.16 95 1013.0
20260903025003 69 243 0.0 2.0 0.00 1.16 1.16 95 1013.0
20260903024503 69 274 0.0 2.0 0.00 1.16 1.16 95 1013.0
20260903024218 69 275 0.0 2.0 0.00 1.16 1.16 95 1013.1
20260903023503 69 272 1.0 3.0 0.03 1.16 1.16 95 1013.5
20260903023003 69 236 1.0 3.0 0.10 1.16 1.16 95 1013.5
20260903022503 69 239 1.0 2.0 0.20 1.16 1.16 95 1013.4
20260903022217 69 264 1.0 3.0 0.26 1.16 1.16 95 1013.5
20260903021503 69 224 1.0 4.0 0.26 1.16 1.16 95 1013.5
20260903021003 69 234 1.0 3.0 0.26 1.16 1.16 95 1013.5
20260903020503 69 270 1.0 3.0 0.26 1.16 1.16 95 1013.5
20260903020003 69 274 0.0 2.0 0.26 1.16 1.16 95 1013.5
20260903015503 69 244 0.0 3.0 0.26 1.16 1.16 94 1013.3
20260903015217 69 228 1.0 3.0 0.26 1.16 1.16 95 1013.5
20260903014503 69 191 1.0 4.0 0.26 1.16 1.16 95 1014.0
20260903014003 69 146 1.0 4.0 0.26 1.16 1.16 95 1014.1
20260903013718 70 93 1.0 3.0 0.25 1.15 1.15 95 1014.0
20260903013003 70 264 1.0 4.0 0.17 1.06 1.06 95 1014.3
20260903012503 69 282 1.0 4.0 0.07 0.96 0.96 95 1014.1
20260903012003 69 275 1.0 4.0 0.02 0.90 0.90 94 1012.9
20260903011503 69 293 0.0 2.0 0.02 0.90 0.90 94 1012.6
20260903011003 69 0 0.0 0.0 0.03 0.90 0.90 95 1012.9
20260903010503 70 0 0.0 0.0 0.04 0.90 0.90 95 1013.1
20260903010003 70 169 0.0 2.0 0.05 0.90 0.90 95 1013.2
20260903005503 70 169 0.0 2.0 0.06 0.90 0.90 95 1012.9